KC5TIL-3 Weather Reports


Display with metric or nautical units.
time (UTC)temp
F
wind
direction
speed
MPH
gust
MPH
rain 1hr
in
rain 24hr
in
rain mn
in
humidity
%
barometer
mb
20260904152012 82 218 11.0 10.0 0.00 0.00 0.00 54 1011.8
20260904151513 82 217 4.0 12.0 0.00 0.00 0.00 57 1011.8
20260904151012 82 220 7.0 10.0 0.00 0.00 0.00 58 1011.8
20260904150514 82 209 4.0 9.0 0.00 0.00 0.00 58 1011.8
20260904150016 82 221 6.0 9.0 0.00 0.00 0.00 61 1011.8
20260904145514 82 196 4.0 6.0 0.00 0.00 0.00 63 1011.8
20260904145016 82 178 3.0 7.0 0.00 0.00 0.00 65 1011.8
20260904144518 81 185 5.0 7.0 0.00 0.00 0.00 65 1011.8
20260904144017 82 117 5.0 10.0 0.00 0.00 0.00 68 1011.8
20260904143514 81 174 4.0 8.0 0.00 0.00 0.00 68 1011.8
20260904143011 81 129 5.0 8.0 0.00 0.00 0.00 67 1011.8
20260904142510 81 139 0.0 8.0 0.00 0.00 0.00 69 1011.8
20260904142011 81 124 6.0 10.0 0.00 0.00 0.00 70 1011.8
20260904141513 81 163 6.0 7.0 0.00 0.00 0.00 71 1011.8
20260904141012 81 129 5.0 8.0 0.00 0.00 0.00 71 1011.8
20260904140514 81 140 6.0 8.0 0.00 0.00 0.00 71 1011.8
20260904140016 81 143 4.0 6.0 0.00 0.00 0.00 73 1011.8
20260904135514 81 175 4.0 5.0 0.00 0.00 0.00 74 1011.8
20260904135016 81 135 0.0 7.0 0.00 0.00 0.00 75 1011.8
20260904134518 80 127 4.0 7.0 0.00 0.00 0.00 75 1011.8
20260904134017 80 173 4.0 7.0 0.00 0.00 0.00 75 1011.8
20260904133514 80 141 4.0 7.0 0.00 0.00 0.00 75 1011.8
20260904133016 80 135 5.0 6.0 0.00 0.00 0.00 76 1011.8
20260904132514 80 123 4.0 7.0 0.00 0.00 0.00 76 1011.8
20260904132016 80 124 5.0 7.0 0.00 0.00 0.00 76 1011.8
20260904131518 80 121 4.0 7.0 0.00 0.00 0.00 76 1011.8
20260904131017 80 159 4.0 8.0 0.00 0.00 0.00 76 1011.8
20260904130519 80 133 7.0 7.0 0.00 0.00 0.00 76 1011.8
20260904130020 80 118 6.0 7.0 0.00 0.00 0.00 76 1011.8
20260904125519 80 120 6.0 9.0 0.00 0.00 0.00 76 1011.8
20260904125021 80 120 6.0 9.0 0.00 0.00 0.00 76 1011.8
20260904124518 80 111 7.0 8.0 0.00 0.00 0.00 76 1010.8
20260904124012 80 113 7.0 8.0 0.00 0.00 0.00 77 1010.8
20260904123514 80 111 6.0 7.0 0.00 0.00 0.00 77 1010.8
20260904123016 80 136 5.0 6.0 0.00 0.00 0.00 77 1010.8
20260904122515 80 180 3.0 8.0 0.00 0.00 0.00 77 1010.8
20260904122017 80 179 5.0 7.0 0.00 0.00 0.00 76 1010.8
20260904121518 80 131 3.0 7.0 0.00 0.00 0.00 76 1010.8
20260904121017 80 130 5.0 7.0 0.00 0.00 0.00 76 1010.8
20260904120519 80 141 4.0 6.0 0.00 0.00 0.00 76 1010.8
20260904120021 80 137 3.0 5.0 0.00 0.00 0.00 76 1010.8
20260904115519 80 161 3.0 6.0 0.00 0.00 0.00 76 1010.8
20260904115428 80 147 3.0 8.0 0.00 0.00 0.00 77 1010.8
20260904115021 80 147 3.0 8.0 0.00 0.00 0.00 77 1010.8
20260904114523 80 137 4.0 7.0 0.00 0.00 0.00 77 1010.8
20260904114022 80 138 3.0 7.0 0.00 0.00 0.00 77 1010.8
20260904113524 80 143 0.0 5.0 0.00 0.00 0.00 77 1010.8
20260904113025 80 133 4.0 7.0 0.00 0.00 0.00 77 1010.8
20260904112524 80 144 3.0 7.0 0.00 0.00 0.00 77 1010.8
20260904112026 80 137 3.0 6.0 0.00 0.00 0.00 77 1010.8
20260904111523 80 210 0.0 5.0 0.00 0.00 0.00 77 1010.8
20260904111022 80 168 0.0 4.0 0.00 0.00 0.00 77 1010.8
20260904110524 80 155 3.0 6.0 0.00 0.00 0.00 77 1010.8
20260904110234 80 199 4.0 5.0 0.00 0.00 0.00 77 1010.8
20260904110026 80 199 4.0 5.0 0.00 0.00 0.00 77 1010.8
20260904105524 80 161 3.0 5.0 0.00 0.00 0.00 77 1010.8
20260904105026 80 181 0.0 5.0 0.00 0.00 0.00 77 1010.8
20260904104528 80 174 3.0 5.0 0.00 0.00 0.00 77 1010.8
20260904104027 80 176 0.0 6.0 0.00 0.00 0.00 76 1010.8
20260904103529 80 163 4.0 6.0 0.00 0.00 0.00 77 1010.8
20260904103030 80 137 0.0 6.0 0.00 0.00 0.00 77 1010.8
20260904102529 80 132 3.0 6.0 0.00 0.00 0.00 77 1010.8
20260904102031 80 194 3.0 7.0 0.00 0.00 0.00 77 1010.8
20260904101533 80 146 4.0 7.0 0.00 0.00 0.00 77 1010.8
20260904101031 80 135 4.0 7.0 0.00 0.00 0.00 77 1010.8
20260904100533 80 191 4.0 8.0 0.00 0.00 0.00 77 1010.8
20260904100035 80 149 4.0 8.0 0.00 0.00 0.00 77 1010.8
20260904095534 80 129 5.0 8.0 0.00 0.00 0.00 76 1010.8
20260904095036 80 128 5.0 7.0 0.00 0.00 0.00 76 1010.8
20260904094537 80 113 4.0 7.0 0.00 0.00 0.00 76 1009.8
20260904094036 80 135 4.0 6.0 0.00 0.00 0.00 76 1009.8
20260904093538 80 148 4.0 8.0 0.00 0.00 0.00 76 1009.8
20260904093035 80 155 6.0 10.0 0.00 0.00 0.00 76 1010.8
20260904092534 80 129 5.0 7.0 0.00 0.00 0.00 77 1010.8
20260904092036 80 151 5.0 8.0 0.00 0.00 0.00 77 1010.8
20260904091538 80 136 6.0 7.0 0.00 0.00 0.00 77 1009.8
20260904091031 80 144 5.0 10.0 0.00 0.00 0.00 77 1009.8
20260904090533 80 128 6.0 9.0 0.00 0.00 0.00 77 1009.8
20260904090035 80 131 6.0 11.0 0.00 0.00 0.00 77 1010.8
20260904085534 80 131 4.0 8.0 0.00 0.00 0.00 77 1010.8
20260904085035 80 135 4.0 8.0 0.00 0.00 0.00 77 1010.8
20260904084537 80 203 5.0 8.0 0.00 0.00 0.00 77 1009.8
20260904084036 80 197 4.0 8.0 0.00 0.00 0.00 77 1009.8
20260904083538 80 223 4.0 8.0 0.00 0.00 0.00 76 1009.8
20260904083040 80 135 4.0 10.0 0.00 0.00 0.00 76 1009.8
20260904082538 80 100 4.0 9.0 0.00 0.00 0.00 76 1009.8
20260904082040 80 149 4.0 6.0 0.00 0.00 0.00 76 1009.8
20260904081542 80 155 3.0 7.0 0.00 0.00 0.00 76 1009.8
20260904081041 79 222 4.0 9.0 0.00 0.00 0.00 76 1009.8
20260904080538 79 134 4.0 7.0 0.00 0.00 0.00 76 1009.8
20260904080040 79 149 4.0 8.0 0.00 0.00 0.00 76 1010.8
20260904075529 79 133 5.0 8.0 0.00 0.00 0.00 76 1010.8
20260904075031 79 128 4.0 6.0 0.00 0.00 0.00 77 1010.8
20260904074533 79 156 3.0 7.0 0.00 0.00 0.00 77 1010.8
20260904074031 79 192 0.0 7.0 0.00 0.00 0.00 76 1010.8
20260904073533 79 149 4.0 6.0 0.00 0.00 0.00 76 1010.8
20260904073035 79 182 5.0 10.0 0.00 0.00 0.00 76 1010.8
20260904072534 79 157 3.0 7.0 0.00 0.00 0.00 76 1010.8
20260904072036 79 121 3.0 8.0 0.00 0.00 0.00 76 1010.8
20260904071537 79 195 5.0 6.0 0.00 0.00 0.00 76 1010.8
20260904071036 79 184 3.0 7.0 0.00 0.00 0.00 76 1010.8
20260904070538 79 207 4.0 7.0 0.00 0.00 0.00 75 1010.8
20260904070040 79 125 4.0 7.0 0.00 0.00 0.00 75 1010.8
20260904065538 79 215 3.0 7.0 0.00 0.00 0.00 75 1010.8
20260904065036 79 168 3.0 6.0 0.00 0.00 0.00 74 1010.8
20260904064538 79 139 0.0 7.0 0.00 0.00 0.00 74 1010.8
20260904064036 79 139 3.0 6.0 0.00 0.00 0.00 73 1010.8
20260904063538 79 201 3.0 6.0 0.00 0.00 0.00 72 1010.8
20260904063040 79 191 4.0 8.0 0.00 0.00 0.00 71 1010.8
20260904062539 79 214 6.0 7.0 0.00 0.00 0.00 70 1010.8
20260904062040 79 160 7.0 10.0 0.00 0.00 0.00 69 1010.8
20260904061542 79 124 6.0 8.0 0.00 0.00 0.00 68 1010.8
20260904061036 79 202 6.0 12.0 0.00 0.00 0.00 68 1010.8
20260904060538 79 219 4.0 10.0 0.00 0.00 0.00 69 1010.8
20260904060040 79 234 6.0 10.0 0.00 0.00 0.00 69 1010.8
20260904055539 79 137 5.0 9.0 0.00 0.00 0.00 67 1010.8
20260904055041 79 140 4.0 9.0 0.00 0.00 0.00 66 1010.8
20260904054542 79 135 6.0 10.0 0.00 0.00 0.00 65 1010.8
20260904054041 79 135 7.0 11.0 0.00 0.00 0.00 65 1010.8
20260904053543 79 138 9.0 11.0 0.00 0.00 0.00 64 1010.8
20260904053045 79 125 9.0 15.0 0.00 0.00 0.00 64 1010.8
20260904052543 79 119 7.0 12.0 0.00 0.00 0.00 64 1010.8
20260904052045 79 126 9.0 13.0 0.00 0.00 0.00 65 1010.8
20260904051547 79 136 8.0 11.0 0.00 0.00 0.00 65 1010.8
20260904051041 79 206 6.0 12.0 0.00 0.00 0.00 64 1010.8
20260904050543 79 162 9.0 12.0 0.00 0.00 0.00 62 1010.8
20260904050045 79 133 7.0 10.0 0.00 0.00 0.00 63 1010.8
20260904045544 79 117 5.0 12.0 0.00 0.00 0.00 60 1010.8
20260904045040 79 140 10.0 12.0 0.00 0.00 0.00 55 1010.8
20260904044542 80 129 8.0 14.0 0.00 0.00 0.00 48 1010.8
20260904044041 81 133 8.0 12.0 0.00 0.00 0.00 46 1010.8
20260904043543 81 118 8.0 11.0 0.00 0.00 0.00 45 1010.8
20260904043045 81 104 7.0 13.0 0.00 0.00 0.00 45 1010.8
20260904042543 81 107 10.0 12.0 0.00 0.00 0.00 44 1010.8
20260904042045 81 129 10.0 17.0 0.00 0.00 0.00 44 1010.8
20260904041547 81 129 7.0 13.0 0.00 0.00 0.00 44 1010.8
20260904041046 81 136 9.0 14.0 0.00 0.00 0.00 44 1010.8
20260904040548 81 119 12.0 15.0 0.00 0.00 0.00 44 1010.8
20260904040049 81 117 9.0 12.0 0.00 0.00 0.00 42 1010.8
20260904035548 81 152 5.0 13.0 0.00 0.00 0.00 42 1010.8
20260904035050 81 122 11.0 17.0 0.00 0.00 0.00 42 1010.8
20260904034552 81 142 10.0 15.0 0.00 0.00 0.00 42 1010.8
20260904034050 81 114 7.0 12.0 0.00 0.00 0.00 41 1010.8
20260904033552 81 119 10.0 15.0 0.00 0.00 0.00 41 1010.8
20260904033054 82 132 10.0 12.0 0.00 0.00 0.00 41 1010.8
20260904032553 82 137 6.0 13.0 0.00 0.00 0.00 41 1010.8
20260904032055 82 121 8.0 11.0 0.00 0.00 0.00 41 1010.8
20260904031556 82 105 8.0 12.0 0.00 0.00 0.00 42 1009.8
20260904031055 82 133 9.0 13.0 0.00 0.00 0.00 41 1009.8
20260904030557 82 117 8.0 16.0 0.00 0.00 0.00 41 1009.8
20260904030049 82 124 10.0 12.0 0.00 0.00 0.00 41 1009.8
20260904025548 82 126 10.0 15.0 0.00 0.00 0.00 41 1009.8
20260904025050 82 119 9.0 15.0 0.00 0.00 0.00 41 1009.8
20260904024552 82 112 9.0 14.0 0.00 0.00 0.00 41 1009.8
20260904024050 83 115 11.0 13.0 0.00 0.00 0.00 41 1009.8
20260904023552 83 137 9.0 13.0 0.00 0.00 0.00 40 1009.8
20260904023054 83 132 9.0 12.0 0.00 0.00 0.00 40 1009.8
20260904022553 83 117 7.0 12.0 0.00 0.00 0.00 41 1009.8
20260904022049 83 116 8.0 14.0 0.00 0.00 0.00 41 1009.8
20260904021551 83 130 12.0 15.0 0.00 0.00 0.00 41 1009.8
20260904021050 83 129 10.0 15.0 0.00 0.00 0.00 41 1009.8
20260904020552 83 124 10.0 13.0 0.00 0.00 0.00 40 1009.8
20260904020054 84 139 10.0 13.0 0.00 0.00 0.00 38 1009.8
20260904015552 84 114 7.0 12.0 0.00 0.00 0.00 36 1009.8
20260904015054 84 108 8.0 11.0 0.00 0.00 0.00 35 1009.8
20260904014556 84 137 8.0 12.0 0.00 0.00 0.00 34 1008.8
20260904014050 84 132 6.0 16.0 0.00 0.00 0.00 32 1008.8
20260904013053 85 138 7.0 15.0 0.00 0.00 0.00 30 1008.8
20260904012542 85 148 10.0 13.0 0.00 0.00 0.00 29 1008.8
20260904012044 85 146 6.0 15.0 0.00 0.00 0.00 29 1008.8
20260904011546 85 162 10.0 17.0 0.00 0.00 0.00 29 1008.8
20260904011044 86 136 11.0 18.0 0.00 0.00 0.00 29 1008.8
20260904010546 86 120 9.0 13.0 0.00 0.00 0.00 28 1008.8
20260904010043 87 114 7.0 13.0 0.00 0.00 0.00 29 1008.8
20260904005542 87 104 10.0 15.0 0.00 0.00 0.00 29 1008.8
20260904005044 87 134 9.0 13.0 0.00 0.00 0.00 29 1008.8
20260904004541 87 121 7.0 12.0 0.00 0.00 0.00 30 1008.8
20260904004040 87 140 12.0 15.0 0.00 0.00 0.00 30 1008.8
20260904003542 87 147 9.0 15.0 0.00 0.00 0.00 29 1008.8
20260904003044 88 138 7.0 15.0 0.00 0.00 0.00 29 1008.8
20260904002542 88 136 9.0 16.0 0.00 0.00 0.00 29 1008.8
20260904002044 88 141 10.0 12.0 0.00 0.00 0.00 29 1008.8
20260904001546 88 128 9.0 14.0 0.00 0.00 0.00 29 1008.8
20260904001045 88 137 11.0 17.0 0.00 0.00 0.00 30 1008.8
20260904000546 88 135 12.0 16.0 0.00 0.00 0.00 30 1008.8
20260904000048 88 133 13.0 20.0 0.00 0.00 0.00 30 1008.8
20260903235543 88 133 14.0 18.0 0.00 0.00 0.00 30 1008.8
20260903235044 89 139 11.0 16.0 0.00 0.00 0.00 29 1008.8
20260903234546 89 107 11.0 16.0 0.00 0.00 0.00 29 1007.8
20260903234045 89 109 12.0 18.0 0.00 0.00 0.00 29 1007.8
20260903233542 89 132 11.0 15.0 0.00 0.00 0.00 29 1007.8
20260903233039 89 138 10.0 15.0 0.00 0.00 0.00 29 1007.8
20260903232538 89 124 12.0 15.0 0.00 0.00 0.00 29 1007.8
20260903231542 90 131 10.0 18.0 0.00 0.00 0.00 29 1007.8
20260903231036 90 137 8.0 18.0 0.00 0.00 0.00 30 1007.8
20260903230538 89 115 15.0 19.0 0.00 0.00 0.00 30 1007.8
20260903230035 90 111 10.0 14.0 0.00 0.00 0.00 30 1007.8
20260903225533 90 160 8.0 13.0 0.00 0.00 0.00 30 1007.8
20260903225021 89 148 10.0 17.0 0.00 0.00 0.00 30 1007.8
20260903224523 90 91 8.0 15.0 0.00 0.00 0.00 30 1007.8
20260903224022 90 135 10.0 15.0 0.00 0.00 0.00 29 1007.8
20260903223025 91 113 9.0 12.0 0.00 0.00 0.00 29 1007.8
20260903222524 90 107 11.0 17.0 0.00 0.00 0.00 30 1007.8
20260903221523 89 113 14.0 18.0 0.00 0.00 0.00 30 1007.8
20260903221022 90 111 15.0 15.0 0.00 0.00 0.00 31 1007.8
20260903220519 89 115 14.0 15.0 0.00 0.00 0.00 31 1007.8
20260903220021 90 117 12.0 12.0 0.00 0.00 0.00 31 1007.8
20260903215520 90 109 10.0 14.0 0.00 0.00 0.00 32 1007.8
20260903215022 89 117 10.0 14.0 0.00 0.00 0.00 32 1007.8
20260903214523 89 136 9.0 13.0 0.00 0.00 0.00 32 1008.8
20260903214022 90 112 7.0 13.0 0.00 0.00 0.00 31 1008.8
20260903213524 89 116 10.0 13.0 0.00 0.00 0.00 33 1008.8
20260903213026 90 124 9.0 12.0 0.00 0.00 0.00 32 1008.8
20260903212524 89 92 6.0 13.0 0.00 0.00 0.00 33 1008.8
20260903212026 90 149 10.0 12.0 0.00 0.00 0.00 33 1008.8
20260903211528 89 135 6.0 9.0 0.00 0.00 0.00 34 1008.8
20260903211027 89 119 6.0 11.0 0.00 0.00 0.00 34 1008.8
20260903210529 89 123 6.0 10.0 0.00 0.00 0.00 34 1008.8
20260903210030 88 147 7.0 11.0 0.00 0.00 0.00 35 1008.8
20260903205506 88 128 10.0 13.0 0.00 0.00 0.00 37 1008.8
20260903205008 88 127 8.0 11.0 0.00 0.00 0.00 36 1008.8
20260903204509 88 112 5.0 13.0 0.00 0.00 0.00 35 1008.8
20260903204009 89 231 6.0 13.0 0.00 0.00 0.00 35 1008.8
20260903203510 88 112 8.0 13.0 0.00 0.00 0.00 35 1008.8
20260903202510 88 150 7.0 9.0 0.00 0.00 0.00 35 1008.8
20260903202007 88 159 7.0 11.0 0.00 0.00 0.00 35 1008.8
20260903201504 88 126 5.0 14.0 0.00 0.00 0.00 37 1008.8
20260903201003 88 144 8.0 11.0 0.00 0.00 0.00 37 1008.8
20260903200505 88 128 5.0 15.0 0.00 0.00 0.00 37 1008.8
20260903200006 88 162 9.0 13.0 0.00 0.00 0.00 38 1008.8
20260903195505 87 132 9.0 14.0 0.00 0.00 0.00 38 1008.8
20260903195007 88 132 7.0 12.0 0.00 0.00 0.00 38 1008.8
20260903194509 88 153 7.0 9.0 0.00 0.00 0.00 38 1009.8
20260903194007 88 124 6.0 10.0 0.00 0.00 0.00 38 1009.8
20260903193509 88 200 5.0 10.0 0.00 0.00 0.00 38 1009.8
20260903193011 88 133 6.0 10.0 0.00 0.00 0.00 38 1009.8
20260903192505 87 173 5.0 12.0 0.00 0.00 0.00 38 1009.8
20260903192007 87 186 5.0 12.0 0.00 0.00 0.00 39 1009.8
20260903191508 87 247 7.0 15.0 0.00 0.00 0.00 39 1009.8
20260903191007 87 213 8.0 15.0 0.00 0.00 0.00 39 1009.8
20260903190504 87 128 7.0 16.0 0.00 0.00 0.00 40 1009.8
20260903190006 87 146 8.0 11.0 0.00 0.00 0.00 38 1009.8
20260903185504 87 128 6.0 12.0 0.00 0.00 0.00 38 1009.8
20260903184508 88 124 8.0 14.0 0.00 0.00 0.00 35 1009.8
20260903184007 88 125 7.0 16.0 0.00 0.00 0.00 34 1009.8
20260903183509 88 192 8.0 13.0 0.00 0.00 0.00 33 1009.8
20260903183011 88 223 6.0 14.0 0.00 0.00 0.00 32 1010.8
20260903182509 88 134 7.0 11.0 0.00 0.00 0.00 32 1010.8
20260903182011 89 212 8.0 15.0 0.00 0.00 0.00 32 1010.8
20260903181513 88 177 10.0 12.0 0.00 0.00 0.00 31 1010.8
20260903181011 89 130 7.0 16.0 0.00 0.00 0.00 31 1010.8
20260903180509 88 137 9.0 13.0 0.00 0.00 0.00 32 1010.8
20260903180006 89 110 6.0 15.0 0.00 0.00 0.00 32 1010.8
20260903175456 88 136 12.0 13.0 0.00 0.00 0.00 33 1010.8
20260903174957 88 204 7.0 12.0 0.00 0.00 0.00 32 1010.8
20260903174459 88 222 8.0 17.0 0.00 0.00 0.00 32 1010.8
20260903173953 88 214 7.0 15.0 0.00 0.00 0.00 32 1010.8
20260903173455 88 123 11.0 10.0 0.00 0.00 0.00 34 1010.8
20260903172957 89 125 5.0 11.0 0.00 0.00 0.00 34 1010.8
20260903172445 88 210 4.0 12.0 0.00 0.00 0.00 36 1010.8
20260903171947 87 109 7.0 11.0 0.00 0.00 0.00 37 1010.8
20260903171449 87 173 9.0 12.0 0.00 0.00 0.00 38 1010.8
20260903170948 87 110 6.0 12.0 0.00 0.00 0.00 38 1010.8
20260903170445 88 201 6.0 12.0 0.00 0.00 0.00 38 1010.8
20260903165946 87 121 9.0 13.0 0.00 0.00 0.00 39 1010.8
20260903165445 87 134 7.0 10.0 0.00 0.00 0.00 39 1010.8
20260903164947 86 227 7.0 10.0 0.00 0.00 0.00 41 1010.8
20260903164449 86 187 7.0 12.0 0.00 0.00 0.00 41 1010.8
20260903163947 86 225 7.0 10.0 0.00 0.00 0.00 41 1010.8
20260903163449 85 223 3.0 9.0 0.00 0.00 0.00 44 1010.8
20260903162951 85 195 7.0 12.0 0.00 0.00 0.00 43 1010.8
20260903162450 85 222 7.0 11.0 0.00 0.00 0.00 46 1010.8
20260903161952 84 98 7.0 9.0 0.00 0.00 0.00 48 1010.8
20260903161453 84 133 6.0 12.0 0.00 0.00 0.00 48 1010.8
20260903160952 84 136 7.0 7.0 0.00 0.00 0.00 47 1010.8
20260903160449 84 165 3.0 10.0 0.00 0.00 0.00 50 1010.8
20260903155951 83 137 5.0 8.0 0.00 0.00 0.00 50 1010.8
20260903155449 83 132 6.0 10.0 0.00 0.00 0.00 53 1010.8
20260903154453 83 98 5.0 9.0 0.00 0.00 0.00 56 1010.8
20260903153952 82 131 5.0 9.0 0.00 0.00 0.00 58 1010.8
20260903153454 82 115 6.0 10.0 0.00 0.00 0.00 59 1010.8
20260903152955 81 134 5.0 10.0 0.00 0.00 0.00 60 1010.8
20260903152454 81 155 5.0 9.0 0.00 0.00 0.00 61 1010.8